This demonstration page uses our WeatherBlox Daily Observations layout. Learn more.

39.51506, -84.39828

Hourly Observations for November 17, 2019

Temp ( °F °C ) Dew Point ( °F °C ) Humidity (%) Winds ( mph kmh ) Pressure ( in mb ) Visibility ( mi km ) Precip ( " mm )
12:15 am 00:15 Clear 26 -3.1 25 -4 94 94 Calm 30.24 1024 10 16.0934 0 0
12:35 am 00:35 Clear 27 -2.9 25 -3.8 94 94 Calm 30.23 1024 10 16.0934 0 0
12:55 am 00:55 Clear 27 -3 25 -3.8 94 94 Calm 30.23 1024 10 16.0934 0 0
1:15 am 01:15 Clear 27 -2.9 25 -3.9 93 93 N 5 7 30.22 1023 10 16.0934 0 0
1:35 am 01:35 Clear 27 -2.9 25 -4.1 92 92 N 3 6 30.22 1023 10 16.0934 0 0
1:55 am 01:55 Clear 27 -3 24 -4.3 91 91 NNE 3 6 30.22 1023 10 16.0934 0 0
2:15 am 02:15 Clear 24 -4.7 21 -5.9 91 91 Calm 30.23 1024 10 16.0934 0 0
2:35 am 02:35 Clear 26 -3.2 24 -4.3 92 92 N 3 6 30.22 1024 10 16.0934 0 0
2:55 am 02:55 Clear 26 -3.2 25 -4.1 94 94 Calm 30.22 1024 10 16.0934 0 0
3:15 am 03:15 Clear 24 -4.3 23 -5.2 94 94 Calm 30.23 1024 10 16.0934 0 0
3:35 am 03:35 Clear 26 -3.2 24 -4.4 92 92 N 6 9 30.22 1024 10 16.0934 0 0
3:55 am 03:55 Clear 26 -3.4 24 -4.4 93 93 Calm 30.21 1023 10 16.0934 0 0
4:15 am 04:15 Clear 25 -4 24 -4.7 95 95 N 3 6 30.21 1023 7 11.26538 0 0
4:35 am 04:35 Clear 26 -3.6 24 -4.3 95 95 Calm 30.22 1023 10 16.0934 0 0
4:55 am 04:55 Clear 22 -5.6 20 -6.7 92 92 ENE 5 7 30.21 1023 10 16.0934 0 0
5:15 am 05:15 Clear 24 -4.3 23 -5 95 95 N 5 7 30.21 1023 10 16.0934 0 0
5:35 am 05:35 Clear 25 -3.8 23 -5.1 91 91 Calm 30.22 1023 10 16.0934 0 0
5:55 am 05:55 Clear 25 -3.9 23 -5.2 91 91 Calm 30.22 1023 10 16.0934 0 0
6:15 am 06:15 Clear 25 -3.8 23 -5.1 91 91 NNE 3 6 30.22 1023 10 16.0934 0 0
6:35 am 06:35 Clear 24 -4.6 22 -5.6 93 93 Calm 30.21 1023 10 16.0934 0 0
6:55 am 06:55 Clear 21 -6.2 19 -7.2 93 93 Calm 30.2 1023 7 11.26538 0 0
7:15 am 07:15 Clear 22 -5.6 20 -6.6 93 93 Calm 30.2 1023 10 16.0934 0 0
7:35 am 07:35 Sunny with Mist and Fog 23 -5.1 22 -5.8 95 95 Calm 30.2 1023 5 8.0467 0 0
7:55 am 07:55 Sunny 24 -4.7 22 -5.4 95 95 Calm 30.2 1023 7 11.26538 0 0
8:15 am 08:15 Sunny 26 -3.4 24 -4.3 94 94 Calm 30.18 1022 7 11.26538 0 0
8:35 am 08:35 Sunny 27 -2.6 25 -3.8 92 92 Calm 30.18 1022 10 16.0934 0 0
8:55 am 08:55 Sunny 29 -1.7 26 -3.6 87 87 Calm 30.18 1022 10 16.0934 0 0
9:15 am 09:15 Sunny 31 -0.5 25 -3.8 79 79 Calm 30.18 1022 10 16.0934 0 0
9:35 am 09:35 Sunny 33 0.4 26 -3.3 77 77 NE 3 6 30.16 1021 10 16.0934 0 0
9:55 am 09:55 Sunny 33 0.7 26 -3.1 76 76 ENE 3 6 30.15 1021 10 16.0934 0 0
10:15 am 10:15 Sunny 35 1.7 28 -2.4 75 75 Calm 30.14 1021 10 16.0934 0 0
10:35 am 10:35 Sunny 38 3.3 28 -2.3 67 67 Calm 30.12 1020 10 16.0934 0 0
10:55 am 10:55 Sunny 40 4.5 28 -2 63 63 Calm 30.1 1019 10 16.0934 0 0
11:15 am 11:15 Sunny 41 5.1 29 -1.5 63 63 Calm 30.09 1019 10 16.0934 0 0
11:35 am 11:35 Sunny 43 6.1 30 -1.2 60 60 Calm 30.08 1019 10 16.0934 0 0
11:55 am 11:55 Sunny 44 6.8 30 -1.1 57 57 Calm 30.07 1018 10 16.0934 0 0
12:15 pm 12:15 Sunny 45 7 30 -1.3 56 56 Calm 30.05 1017 10 16.0934 0 0
12:35 pm 12:35 Sunny 46 8 30 -1.1 53 53 NW 5 7 30.04 1017 10 16.0934 0 0
12:55 pm 12:55 Sunny 47 8.6 30 -1.2 51 51 Calm 30.03 1017 10 16.0934 0 0
1:15 pm 13:15 Sunny 47 8.6 29 -1.4 50 50 Calm 30.02 1017 10 16.0934 0 0
1:35 pm 13:35 Sunny 48 9.1 30 -1.2 49 49 Calm 30.02 1017 10 16.0934 0 0
1:55 pm 13:55 Sunny 49 9.3 30 -1.2 48 48 Calm 30.01 1016 10 16.0934 0 0
2:15 pm 14:15 Sunny 48 8.9 29 -1.4 49 49 Calm 30 1016 10 16.0934 0 0
2:35 pm 14:35 Sunny 48 9 29 -1.4 48 48 Calm 29.99 1016 10 16.0934 0 0
2:55 pm 14:55 Sunny 48 8.9 30 -1.3 49 49 Calm 29.99 1016 10 16.0934 0 0
3:15 pm 15:15 Sunny 48 9.1 28 -2.1 46 46 Calm 29.98 1015 10 16.0934 0 0
3:35 pm 15:35 Sunny 48 9 29 -1.7 47 47 Calm 29.97 1015 10 16.0934 0 0
3:55 pm 15:55 Sunny 48 8.7 29 -1.4 49 49 Calm 29.97 1015 10 16.0934 0 0
4:15 pm 16:15 Sunny 47 8.2 31 -0.4 55 55 Calm 29.96 1015 10 16.0934 0 0
4:35 pm 16:35 Sunny 47 8.3 31 -0.6 54 54 Calm 29.96 1015 10 16.0934 0 0
4:55 pm 16:55 Sunny 46 7.9 31 -0.4 56 56 Calm 29.95 1014 10 16.0934 0 0
5:15 pm 17:15 Sunny 44 6.8 33 0.8 66 66 Calm 29.96 1014 10 16.0934 0 0
5:35 pm 17:35 Clear 43 6.2 33 0.8 69 69 W 3 6 29.97 1015 10 16.0934 0 0
5:55 pm 17:55 Clear 42 5.6 34 0.9 72 72 Calm 29.96 1015 10 16.0934 0 0
6:15 pm 18:15 Clear 40 4.7 34 1 77 77 Calm 29.96 1015 10 16.0934 0 0
6:35 pm 18:35 Clear 41 5.2 34 1 75 75 Calm 29.96 1015 10 16.0934 0 0
6:55 pm 18:55 Clear 41 4.8 33 0.6 75 75 Calm 29.96 1015 10 16.0934 0 0
7:15 pm 19:15 Clear 41 4.9 33 0.3 72 72 Calm 29.95 1014 10 16.0934 0 0
7:35 pm 19:35 Clear 40 4.5 33 0.4 75 75 Calm 29.94 1014 10 16.0934 0 0
7:55 pm 19:55 Clear 39 3.7 34 1 83 83 Calm 29.95 1014 10 16.0934 0 0
8:15 pm 20:15 Clear 38 3.3 34 1.2 86 86 Calm 29.95 1014 10 16.0934 0 0
8:35 pm 20:35 Clear 38 3.5 33 0.7 82 82 Calm 29.94 1014 10 16.0934 0 0
8:55 pm 20:55 Clear 37 2.9 33 0.7 86 86 Calm 29.94 1014 10 16.0934 0 0
9:15 pm 21:15 Clear 38 3.1 33 0.5 83 83 Calm 29.95 1014 10 16.0934 0 0
9:35 pm 21:35 Clear 38 3.4 33 0.3 80 80 Calm 29.93 1013 10 16.0934 0 0
9:55 pm 21:55 Clear 38 3.3 33 0.3 81 81 Calm 29.93 1013 10 16.0934 0 0
10:15 pm 22:15 Hazy 38 3.2 33 0.4 82 82 Calm 29.92 1013 5 8.0467 0 0
10:35 pm 22:35 Clear with Light Rain 35 1.8 32 -0.2 87 87 Calm 29.91 1013 3 4.82802 0 0
10:55 pm 22:55 Clear 36 2.1 33 0.3 88 88 Calm 29.91 1013 10 16.0934 0 0
11:15 pm 23:15 Clear 36 2 33 0.3 89 89 Calm 29.9 1013 10 16.0934 0 0
11:35 pm 23:35 Clear 35 1.4 32 -0.2 89 89 Calm 29.9 1013 10 16.0934 0 0
11:55 pm 23:55 Clear 35 1.6 31 -0.3 87 87 Calm 29.9 1013 10 16.0934 0 0

Powered by AerisWeather